Time,TemperatureF,DewpointF,PressureIn,WindDirection,WindDirectionDegrees,WindSpeedMPH,WindSpeedGustMPH,Humidity,HourlyPrecipIn,Conditions,Clouds,dailyrainin,SolarRadiationWatts/m^2,SoftwareType,DateUTC
2013-03-14 00:02:00,57.0,28.0,-100.00,NE,53,0.0,7.0,33,-99.99,,,0.00,0.000000,,2013-03-14 07:02:00,
2013-03-14 01:02:00,61.0,26.0,-100.00,SW,234,0.0,7.0,26,-99.99,,,0.00,0.000000,,2013-03-14 08:02:00,
2013-03-14 01:12:00,61.0,26.0,-100.00,SW,234,0.0,7.0,26,-99.99,,,0.00,0.000000,,2013-03-14 08:12:00,
2013-03-14 01:21:00,61.0,26.0,-100.00,SW,234,0.0,7.0,26,-99.99,,,0.00,0.000000,,2013-03-14 08:21:00,
2013-03-14 01:31:00,61.0,26.0,-100.00,SW,234,0.0,7.0,26,-99.99,,,0.00,0.000000,,2013-03-14 08:31:00,
2013-03-14 01:52:00,53.0,28.0,-100.00,East,98,0.0,7.0,38,0.00,,,0.00,0.000000,,2013-03-14 08:52:00,
2013-03-14 02:01:00,53.0,28.0,-100.00,East,98,0.0,7.0,38,0.00,,,0.00,0.000000,,2013-03-14 09:01:00,
2013-03-14 03:02:00,52.0,31.0,-100.00,ESE,113,0.0,7.0,44,-99.99,,,0.00,0.000000,,2013-03-14 10:02:00,
2013-03-14 04:02:00,52.0,30.0,-100.00,South,178,1.0,7.0,43,-99.99,,,0.00,0.000000,,2013-03-14 11:02:00,
2013-03-14 05:02:00,51.0,30.0,-100.00,ESE,121,1.0,5.0,44,-99.99,,,0.00,0.000000,,2013-03-14 12:02:00,
2013-03-14 06:02:00,54.0,30.0,-100.00,East,101,0.0,7.0,39,-99.99,,,0.00,0.000000,,2013-03-14 13:02:00,
2013-03-14 07:02:00,51.0,28.0,-100.00,ESE,113,3.0,7.0,41,-99.99,,,0.00,0.000000,,2013-03-14 14:02:00,
2013-03-14 08:02:00,52.0,28.0,-100.00,East,96,0.0,6.0,40,-99.99,,,0.00,7.000000,,2013-03-14 15:02:00,
2013-03-14 08:52:00,67.0,31.0,-100.00,ESE,107,0.0,6.0,26,-99.99,,,0.00,124.000000,,2013-03-14 15:52:00,
2013-03-14 09:02:00,67.0,31.0,-100.00,ESE,107,0.0,6.0,26,-99.99,,,0.00,124.000000,,2013-03-14 16:02:00,
2013-03-14 09:22:00,67.0,31.0,-100.00,ESE,107,0.0,6.0,26,-99.99,,,0.00,124.000000,,2013-03-14 16:22:00,
2013-03-14 09:32:00,67.0,31.0,-100.00,ESE,107,0.0,6.0,26,-99.99,,,0.00,124.000000,,2013-03-14 16:32:00,
2013-03-14 09:52:00,74.0,23.0,-100.00,NE,45,3.0,15.0,15,0.00,,,0.00,557.000000,,2013-03-14 16:52:00,
2013-03-14 10:02:00,74.0,23.0,-100.00,NE,45,3.0,15.0,15,0.00,,,0.00,557.000000,,2013-03-14 17:02:00,
2013-03-14 10:12:00,74.0,23.0,-100.00,NE,45,3.0,15.0,15,0.00,,,0.00,557.000000,,2013-03-14 17:12:00,
2013-03-14 10:23:00,74.0,23.0,-100.00,NE,45,3.0,15.0,15,0.00,,,0.00,557.000000,,2013-03-14 17:23:00,
2013-03-14 10:31:00,74.0,23.0,-100.00,NE,45,3.0,15.0,15,0.00,,,0.00,557.000000,,2013-03-14 17:31:00,
2013-03-14 10:52:00,78.0,25.0,-100.00,NE,56,7.0,20.0,14,0.00,,,0.00,829.000000,,2013-03-14 17:52:00,
2013-03-14 11:02:00,78.0,25.0,-100.00,NE,56,7.0,20.0,14,0.00,,,0.00,829.000000,,2013-03-14 18:02:00,
2013-03-14 11:12:00,78.0,25.0,-100.00,NE,56,7.0,20.0,14,0.00,,,0.00,829.000000,,2013-03-14 18:12:00,
2013-03-14 11:22:00,78.0,25.0,-100.00,NE,56,7.0,20.0,14,0.00,,,0.00,829.000000,,2013-03-14 18:22:00,
2013-03-14 11:32:00,78.0,25.0,-100.00,NE,56,7.0,20.0,14,0.00,,,0.00,829.000000,,2013-03-14 18:32:00,
2013-03-14 11:52:00,79.0,26.0,-100.00,NNW,346,5.0,18.0,14,0.00,,,0.00,1039.000000,,2013-03-14 18:52:00,
2013-03-14 12:02:00,79.0,26.0,-100.00,NNW,346,5.0,18.0,14,0.00,,,0.00,1039.000000,,2013-03-14 19:02:00,
2013-03-14 12:12:00,79.0,26.0,-100.00,NNW,346,5.0,18.0,14,0.00,,,0.00,1039.000000,,2013-03-14 19:12:00,
2013-03-14 12:22:00,79.0,26.0,-100.00,NNW,346,5.0,18.0,14,0.00,,,0.00,1039.000000,,2013-03-14 19:22:00,
2013-03-14 12:32:00,79.0,26.0,-100.00,NNW,346,5.0,18.0,14,0.00,,,0.00,1039.000000,,2013-03-14 19:32:00,
2013-03-14 14:02:00,79.0,24.0,-100.00,SE,145,8.0,19.0,13,-99.99,,,0.00,1206.000000,,2013-03-14 21:02:00,
2013-03-14 14:12:00,79.0,24.0,-100.00,SE,145,8.0,19.0,13,-99.99,,,0.00,1206.000000,,2013-03-14 21:12:00,
2013-03-14 14:22:00,79.0,24.0,-100.00,SE,145,8.0,19.0,13,-99.99,,,0.00,1206.000000,,2013-03-14 21:22:00,
2013-03-14 14:32:00,79.0,24.0,-100.00,SE,145,8.0,19.0,13,-99.99,,,0.00,1206.000000,,2013-03-14 21:32:00,
2013-03-14 15:03:00,83.0,27.0,-100.00,East,95,4.0,13.0,13,0.00,,,0.00,1156.000000,,2013-03-14 22:03:00,
2013-03-14 15:12:00,83.0,27.0,-100.00,East,95,4.0,13.0,13,0.00,,,0.00,1156.000000,,2013-03-14 22:12:00,
2013-03-14 15:23:00,83.0,27.0,-100.00,East,95,4.0,13.0,13,0.00,,,0.00,1156.000000,,2013-03-14 22:23:00,
2013-03-14 15:32:00,83.0,27.0,-100.00,East,95,4.0,13.0,13,0.00,,,0.00,1156.000000,,2013-03-14 22:32:00,
2013-03-14 16:02:00,82.0,26.0,-100.00,East,89,5.0,13.0,13,0.00,,,0.00,1017.000000,,2013-03-14 23:02:00,
2013-03-14 16:12:00,82.0,26.0,-100.00,East,89,5.0,13.0,13,0.00,,,0.00,1017.000000,,2013-03-14 23:12:00,
2013-03-14 16:22:00,82.0,26.0,-100.00,East,89,5.0,13.0,13,0.00,,,0.00,1017.000000,,2013-03-14 23:22:00,
2013-03-14 16:32:00,82.0,26.0,-100.00,East,89,5.0,13.0,13,0.00,,,0.00,1017.000000,,2013-03-14 23:32:00,
2013-03-14 17:02:00,79.0,32.0,-100.00,NNW,340,4.0,14.0,18,0.00,,,0.00,798.000000,,2013-03-15 00:02:00,
2013-03-14 17:12:00,79.0,32.0,-100.00,NNW,340,4.0,14.0,18,0.00,,,0.00,798.000000,,2013-03-15 00:12:00,
2013-03-14 17:22:00,79.0,32.0,-100.00,NNW,340,4.0,14.0,18,0.00,,,0.00,798.000000,,2013-03-15 00:22:00,
2013-03-14 17:32:00,79.0,32.0,-100.00,NNW,340,4.0,14.0,18,0.00,,,0.00,798.000000,,2013-03-15 00:32:00,
2013-03-14 18:02:00,78.0,40.0,-100.00,WNW,302,1.0,11.0,26,0.00,,,0.00,515.000000,,2013-03-15 01:02:00,
2013-03-14 18:11:00,78.0,40.0,-100.00,WNW,302,1.0,11.0,26,0.00,,,0.00,515.000000,,2013-03-15 01:11:00,
2013-03-14 18:22:00,78.0,40.0,-100.00,WNW,302,1.0,11.0,26,0.00,,,0.00,515.000000,,2013-03-15 01:22:00,
2013-03-14 18:32:00,78.0,40.0,-100.00,WNW,302,1.0,11.0,26,0.00,,,0.00,515.000000,,2013-03-15 01:32:00,
2013-03-14 19:02:00,68.0,37.0,-100.00,NW,314,0.0,5.0,32,0.00,,,0.00,187.000000,,2013-03-15 02:02:00,
2013-03-14 19:12:00,68.0,37.0,-100.00,NW,314,0.0,5.0,32,0.00,,,0.00,187.000000,,2013-03-15 02:12:00,
2013-03-14 19:22:00,68.0,37.0,-100.00,NW,314,0.0,5.0,32,0.00,,,0.00,187.000000,,2013-03-15 02:22:00,
2013-03-14 19:32:00,68.0,37.0,-100.00,NW,314,0.0,5.0,32,0.00,,,0.00,187.000000,,2013-03-15 02:32:00,
2013-03-14 20:02:00,60.0,42.0,-100.00,ESE,111,4.0,7.0,52,0.00,,,0.00,4.000000,,2013-03-15 03:02:00,
2013-03-14 21:03:00,55.0,40.0,-100.00,ESE,114,3.0,6.0,56,0.00,,,0.00,0.000000,,2013-03-15 04:03:00,
2013-03-14 22:02:00,57.0,39.0,-100.00,SE,125,2.0,7.0,51,-99.99,,,0.00,0.000000,,2013-03-15 05:02:00,
2013-03-14 22:52:00,52.0,38.0,-100.00,South,185,3.0,7.0,58,-99.99,,,0.00,0.000000,,2013-03-15 05:52:00,
2013-03-14 23:02:00,52.0,38.0,-100.00,South,185,3.0,7.0,58,-99.99,,,0.00,0.000000,,2013-03-15 06:02:00,